OE3PDB-4 Weather Reports


time (UTC)temp
C
wind
direction
speed
KPH
gust
KPH
rain 1hr
cm
rain 24hr
cm
rain mn
cm
humidity
%
barometer
mb
20260507185542 17 225 0.0 0.0 0.00 0.00 0.00 60 1014.3
20260507184542 17 315 0.0 0.0 0.00 0.00 0.00 59 1014.2
20260507183542 17 292 0.0 0.0 0.00 0.00 0.00 59 1014.1
20260507182542 17 180 0.0 0.0 0.00 0.00 0.00 59 1014.0
20260507181542 17 247 0.0 0.0 0.00 0.00 0.00 58 1013.8
20260507180542 17 315 0.0 0.0 0.00 0.00 0.00 57 1013.8
20260507175542 17 270 0.0 0.0 0.00 0.00 0.00 57 1013.9
20260507174542 18 292 0.0 0.0 0.00 0.00 0.00 57 1013.8
20260507173542 18 315 0.0 0.0 0.00 0.00 0.00 58 1013.6
20260507172542 18 315 0.0 0.0 0.00 0.00 0.00 57 1013.5
20260507171542 18 315 0.0 0.0 0.00 0.00 0.00 57 1013.4
20260507170542 18 315 0.0 0.0 0.00 0.00 0.00 56 1013.2
20260507165542 18 315 0.0 0.0 0.00 0.00 0.00 55 1013.2
20260507164542 18 315 0.0 0.0 0.00 0.00 0.00 54 1013.1
20260507163542 18 315 0.0 0.0 0.00 0.00 0.00 53 1013.1
20260507162542 18 292 0.0 0.0 0.00 0.00 0.00 52 1013.0
20260507160956 19 315 0.0 0.0 0.00 0.00 0.00 50 1013.1
20260507155956 19 315 0.0 0.0 0.00 0.00 0.00 49 1012.9
20260507154956 20 315 0.0 1.6 0.00 0.00 0.00 48 1012.7
20260507153956 20 292 3.2 3.2 0.00 0.00 0.00 46 1012.6
20260507152956 21 315 0.0 0.0 0.00 0.00 0.00 46 1012.6
20260507151956 21 315 1.6 1.6 0.00 0.00 0.00 46 1012.5
20260507150958 21 315 0.0 0.0 0.00 0.00 0.00 46 1012.4
20260507145956 21 315 1.6 1.6 0.00 0.00 0.00 47 1012.4
20260507144956 21 315 0.0 1.6 0.00 0.00 0.00 44 1012.3
20260507143956 21 315 0.0 4.8 0.00 0.00 0.00 44 1012.3
20260507142956 21 315 1.6 1.6 0.00 0.00 0.00 43 1012.4
20260507141956 21 315 4.8 4.8 0.00 0.00 0.00 42 1012.4
20260507140956 22 315 0.0 0.0 0.00 0.00 0.00 41 1012.3
20260507135956 22 292 3.2 3.2 0.00 0.00 0.00 41 1012.3
20260507134956 22 337 1.6 1.6 0.00 0.00 0.00 41 1012.3
20260507133956 22 270 0.0 0.0 0.00 0.00 0.00 42 1012.3
20260507132956 22 292 0.0 0.0 0.00 0.00 0.00 42 1012.4
20260507131956 22 315 0.0 0.0 0.00 0.00 0.00 42 1012.5
20260507130956 22 315 0.0 0.0 0.00 0.00 0.00 43 1012.6
20260507125956 21 315 0.0 0.0 0.00 0.00 0.00 44 1012.6
20260507124956 20 292 0.0 0.0 0.00 0.00 0.00 44 1012.7
20260507123956 20 270 0.0 0.0 0.00 0.00 0.00 45 1012.6
20260507122956 20 315 0.0 0.0 0.00 0.00 0.00 45 1012.8
20260507121956 20 315 0.0 0.0 0.00 0.00 0.00 46 1012.7
20260507120956 18 337 0.0 0.0 0.00 0.00 0.00 48 1012.9
20260507115956 18 270 1.6 1.6 0.00 0.00 0.00 48 1013.1
20260507114956 18 315 0.0 0.0 0.00 0.00 0.00 48 1013.1
20260507113956 18 315 1.6 1.6 0.00 0.00 0.00 49 1013.1
20260507112957 18 315 0.0 0.0 0.00 0.00 0.00 50 1013.2
20260507111956 18 315 0.0 3.2 0.00 0.00 0.00 49 1013.2
20260507110956 18 292 0.0 0.0 0.00 0.00 0.00 48 1013.2
20260507105956 17 292 0.0 0.0 0.00 0.00 0.00 49 1013.3
20260507104956 17 337 3.2 3.2 0.00 0.00 0.00 49 1013.6
20260507103956 17 315 0.0 0.0 0.00 0.00 0.00 50 1013.5
20260507102957 17 315 8.0 9.7 0.00 0.00 0.00 50 1013.5
20260507101956 17 315 0.0 3.2 0.00 0.00 0.00 50 1013.7
20260507100957 17 315 0.0 1.6 0.00 0.00 0.00 50 1013.7
20260507095957 17 315 0.0 3.2 0.00 0.00 0.00 50 1013.7
20260507094957 17 270 0.0 3.2 0.00 0.00 0.00 51 1013.5
20260507093957 17 315 0.0 3.2 0.00 0.00 0.00 51 1013.5
20260507092957 16 292 0.0 0.0 0.00 0.00 0.00 52 1013.5
20260507091957 16 225 0.0 0.0 0.00 0.00 0.00 52 1013.6
20260507090957 16 315 4.8 9.7 0.00 0.00 0.00 51 1013.4
20260507085957 16 315 0.0 4.8 0.00 0.00 0.00 52 1013.2
20260507084957 16 315 1.6 1.6 0.00 0.00 0.00 52 1013.1
20260507083957 16 292 3.2 11.3 0.00 0.00 0.00 52 1013.1
20260507082957 16 202 0.0 9.7 0.00 0.00 0.00 53 1013.0
20260507081957 16 270 0.0 6.4 0.00 0.00 0.00 53 1012.7
20260507080957 16 315 3.2 12.9 0.00 0.00 0.00 53 1012.8
20260507075957 16 315 0.0 0.0 0.00 0.00 0.00 54 1012.8
20260507074957 16 315 0.0 1.6 0.00 0.00 0.00 55 1012.8
20260507073957 15 315 1.6 1.6 0.00 0.00 0.00 55 1012.7
20260507072957 15 337 3.2 3.2 0.00 0.00 0.00 55 1012.6
20260507071957 15 292 0.0 1.6 0.00 0.00 0.00 56 1012.4
20260507070957 15 270 0.0 0.0 0.00 0.00 0.00 57 1012.3
20260507065957 15 337 0.0 8.0 0.00 0.00 0.00 57 1012.3
20260507064957 15 292 3.2 4.8 0.00 0.00 0.00 58 1012.3
20260507063957 15 292 1.6 1.6 0.00 0.00 0.00 58 1012.4
20260507062957 15 270 0.0 0.0 0.00 0.00 0.00 58 1012.4
20260507061957 15 247 0.0 0.0 0.00 0.00 0.00 58 1012.1
20260507060957 15 270 0.0 0.0 0.00 0.00 0.00 58 1012.2
20260507055957 15 180 0.0 8.0 0.00 0.00 0.00 58 1012.1
20260507054957 15 157 3.2 3.2 0.00 0.00 0.00 58 1012.0
20260507053957 15 292 0.0 1.6 0.00 0.00 0.00 57 1011.9
20260507052957 15 315 3.2 3.2 0.00 0.00 0.00 58 1011.8
20260507051957 15 315 0.0 0.0 0.00 0.00 0.00 58 1011.7
20260507050957 15 292 0.0 0.0 0.00 0.00 0.00 59 1011.8
20260507045957 15 315 1.6 1.6 0.00 0.00 0.00 58 1011.5
20260507044957 15 315 0.0 0.0 0.00 0.00 0.00 58 1011.3
20260507043957 15 315 0.0 3.2 0.00 0.00 0.00 59 1011.2
20260507042957 14 315 0.0 0.0 0.00 0.00 0.00 59 1011.3
20260507041957 14 270 0.0 1.6 0.00 0.00 0.00 60 1011.2
20260507040957 13 292 0.0 0.0 0.00 0.00 0.00 59 1010.9
20260507035957 14 337 0.0 8.0 0.00 0.00 0.00 59 1011.0
20260507034957 14 315 0.0 0.0 0.00 0.00 0.00 59 1010.9
20260507033957 14 270 0.0 0.0 0.00 0.00 0.00 59 1010.9
20260507032957 14 225 0.0 0.0 0.00 0.00 0.00 58 1010.9
20260507031957 14 270 0.0 3.2 0.00 0.00 0.00 58 1010.8
20260507030957 14 292 0.0 0.0 0.00 0.00 0.00 58 1010.7
20260507025957 14 292 3.2 3.2 0.00 0.00 0.00 59 1010.7
20260507024957 14 292 0.0 0.0 0.00 0.00 0.00 59 1010.5
20260507023957 15 292 0.0 0.0 0.00 0.00 0.00 59 1010.5
20260507022957 15 315 9.7 9.7 0.00 0.00 0.00 60 1010.5
20260507021957 15 315 0.0 0.0 0.00 0.00 0.00 60 1010.7
20260507020957 15 270 0.0 1.6 0.00 0.00 0.00 60 1010.5
20260507015957 15 292 0.0 0.0 0.00 0.00 0.00 60 1010.4
20260507014957 15 292 0.0 0.0 0.00 0.00 0.00 61 1010.2
20260507013958 15 337 0.0 6.4 0.00 0.00 0.00 61 1010.3
20260507012957 15 315 0.0 0.0 0.00 0.00 0.00 61 1010.2
20260507011957 15 292 0.0 0.0 0.00 0.00 0.00 61 1010.1
20260507010957 15 337 0.0 4.8 0.00 0.00 0.00 61 1010.0
20260507005957 15 292 0.0 4.8 0.00 0.00 0.00 61 1009.9
20260507004957 15 225 0.0 0.0 0.00 0.00 0.00 61 1010.0
20260507003957 15 315 0.0 1.6 0.00 0.00 0.00 61 1009.8
20260507002957 15 337 1.6 4.8 0.00 0.00 0.00 61 1009.6
20260507001957 15 315 8.0 8.0 0.00 0.00 0.00 61 1009.6
20260507000957 15 112 0.0 6.4 0.00 0.00 0.00 61 1009.6
20260506235957 16 315 0.0 3.2 0.00 0.00 0.00 61 1009.5
20260506234957 16 202 0.0 0.0 0.00 0.00 0.00 61 1009.4
20260506233957 16 315 3.2 3.2 0.00 0.00 0.00 62 1009.2
20260506232957 16 292 0.0 0.0 0.00 0.00 0.00 63 1009.3
20260506231957 16 270 1.6 1.6 0.00 0.00 0.00 63 1009.2
20260506230957 16 292 0.0 3.2 0.00 0.00 0.00 63 1009.1
20260506225957 16 315 3.2 3.2 0.00 0.00 0.00 62 1009.1
20260506224957 16 292 0.0 1.6 0.00 0.00 0.00 62 1008.9
20260506223958 16 315 6.4 6.4 0.00 0.00 0.00 60 1008.5
20260506222958 16 270 0.0 0.0 0.00 0.00 0.00 59 1008.4
20260506221958 16 315 0.0 3.2 0.00 0.00 0.00 59 1008.1
20260506220958 16 315 3.2 3.2 0.00 0.00 0.00 58 1007.9
20260506215958 16 315 1.6 1.6 0.00 0.00 0.00 58 1007.8
20260506214958 16 180 0.0 0.0 0.00 0.00 0.00 57 1007.5
20260506213958 17 180 0.0 0.0 0.00 0.00 0.00 57 1007.5
20260506212958 17 180 0.0 0.0 0.00 0.00 0.00 56 1007.2
20260506211958 17 180 0.0 0.0 0.00 0.00 0.00 56 1007.0
20260506210958 17 180 0.0 0.0 0.00 0.00 0.00 55 1006.8
20260506205958 18 180 0.0 0.0 0.00 0.00 0.00 54 1006.4
20260506204958 18 180 0.0 0.0 0.00 0.00 0.00 53 1006.4
20260506203958 18 180 0.0 0.0 0.00 0.00 0.00 53 1006.4
20260506202958 18 180 0.0 0.0 0.00 0.00 0.00 52 1006.3
20260506201958 19 180 0.0 0.0 0.00 0.00 0.00 52 1006.2
20260506200958 19 180 0.0 0.0 0.00 0.00 0.00 51 1006.2
20260506195958 20 180 0.0 0.0 0.00 0.00 0.00 51 1006.1
20260506194958 20 180 0.0 0.0 0.00 0.00 0.00 50 1005.9
20260506193958 20 180 0.0 0.0 0.00 0.00 0.00 50 1005.7
20260506192958 20 180 0.0 0.0 0.00 0.00 0.00 49 1005.7
20260506191958 20 180 0.0 0.0 0.00 0.00 0.00 49 1005.6
20260506190958 20 180 0.0 0.0 0.00 0.00 0.00 48 1005.6
20260506185958 20 180 0.0 0.0 0.00 0.00 0.00 48 1005.5